Vorticity
nan nan nan nan nan nan nan nan nan nan nan nan nan nan nan nan nan nan nan nan nan nan nan nan nan nan nan nan nan nan nan nan nan nan nan nan nan nan nan nan nan nan nan nan nan
nan 8 8 8 7 7 7 7 7 7 7 7 7 8 7 11 15 8 11 14 9 4 2 6 8 4 7 7 7 8 8 6 7 10 13 10 5 5 7 1 3 11 16 11 nan
nan 8 8 8 8 7 8 7 7 7 7 7 7 8 8 12 12 8 13 12 5 3 3 7 6 5 6 7 9 8 6 6 9 13 14 8 4 7 7 4 11 11 6 4 nan
nan 9 8 8 7 8 8 7 8 7 7 7 8 8 13 13 8 10 16 12 5 4 6 7 5 7 7 8 8 7 7 6 8 10 11 10 5 9 1 9 22 14 6 4 nan
nan 8 8 8 8 8 8 8 7 7 7 8 8 11 14 9 5 14 14 8 6 5 7 6 6 7 8 8 7 5 7 9 6 5 10 11 4 7 8 13 18 10 6 4 nan
nan 8 9 9 8 8 8 8 7 7 8 8 8 11 11 9 11 13 7 3 4 6 7 6 6 7 7 7 5 6 11 13 12 10 9 8 5 5 13 12 10 7 4 5 nan
nan 9 9 9 8 8 8 7 7 9 10 10 10 11 8 6 14 10 2 5 6 5 5 7 9 8 8 7 6 10 12 5 7 13 11 7 3 8 13 10 6 5 5 6 nan
nan 9 10 10 9 9 8 7 9 11 12 12 11 9 7 10 12 5 3 7 8 7 4 7 12 10 8 8 9 8 8 3 5 10 13 7 4 16 14 7 6 6 5 7 nan
nan 10 10 10 10 9 7 11 17 14 12 11 8 8 11 10 9 8 5 7 10 9 9 10 8 10 10 9 5 9 9 9 5 6 10 6 6 15 12 6 6 7 6 6 nan
nan 10 11 10 10 9 13 17 13 13 12 7 8 10 7 10 12 9 6 7 10 10 6 7 8 9 10 10 9 11 7 6 5 5 7 5 6 11 13 8 5 5 6 6 nan
nan 11 11 11 10 10 16 16 9 10 7 7 7 7 8 10 10 8 9 5 5 7 7 7 8 8 8 9 10 7 6 6 7 6 7 9 7 11 12 7 7 7 6 7 nan
nan 11 11 11 11 12 12 7 6 8 11 9 6 8 9 7 9 10 8 6 7 6 10 7 11 10 4 6 5 4 6 8 9 11 8 10 15 18 15 9 7 5 6 6 nan
nan 11 12 12 12 12 9 8 6 8 10 12 11 11 13 10 9 10 6 6 9 8 9 7 11 10 8 8 6 6 8 7 7 12 9 10 17 13 16 15 10 8 7 7 nan
nan 12 13 11 12 10 10 5 11 11 10 9 11 12 12 7 7 9 9 6 7 9 7 9 9 10 8 8 8 7 9 10 11 9 5 11 13 12 15 18 14 10 9 8 nan
nan 13 14 10 10 6 4 11 14 9 9 9 10 9 10 10 7 6 8 12 10 8 6 9 9 7 8 12 10 8 7 10 13 9 9 11 10 8 9 13 17 18 12 10 nan
nan 13 13 10 8 5 8 14 7 9 8 9 9 10 7 7 7 9 6 7 9 8 9 7 10 10 7 6 10 6 5 7 9 10 10 8 9 4 10 9 8 17 20 13 nan
nan 18 7 4 7 10 13 9 9 9 9 11 9 11 6 8 9 9 10 3 2 4 7 11 9 10 11 6 10 6 5 7 7 5 8 13 8 11 9 5 8 10 19 20 nan
nan 20 5 5 3 11 14 9 9 10 9 8 11 12 10 6 7 9 7 7 8 6 4 8 13 15 7 7 8 13 5 8 6 7 11 13 6 7 11 12 11 12 14 17 nan
nan 9 10 12 13 8 8 9 9 7 10 9 8 7 8 7 9 10 7 12 17 10 2 8 7 12 10 10 11 8 8 7 12 9 6 7 9 7 4 11 12 9 9 10 nan
nan 8 7 12 12 9 9 9 8 8 8 9 7 11 10 9 10 8 10 10 13 13 9 10 10 10 11 8 8 9 12 9 9 6 8 7 8 8 1 8 12 14 10 7 nan
nan 7 7 11 10 9 10 9 11 12 10 9 10 11 10 10 10 7 8 7 10 14 15 8 9 8 10 9 7 10 6 7 7 8 9 10 10 9 5 3 8 15 16 10 nan
nan 7 9 10 11 9 10 8 8 10 13 11 9 9 12 12 10 8 8 6 11 14 9 8 9 6 8 10 11 9 12 9 9 12 8 6 10 10 5 5 10 16 17 12 nan
nan 10 9 14 10 8 9 11 10 10 10 12 9 8 11 11 10 9 9 7 11 17 12 9 8 9 7 8 9 9 7 8 8 9 3 3 8 5 3 8 10 17 15 9 nan
nan 8 7 11 11 10 9 11 11 10 9 10 11 9 9 8 10 10 8 6 10 12 12 10 7 8 6 7 11 11 7 4 2 -1 9 5 2 4 6 9 15 20 14 9 nan
nan 10 12 12 8 9 9 9 11 9 6 10 9 11 10 8 7 8 8 9 7 8 9 9 9 12 11 9 5 6 8 8 4 2 3 2 12 9 11 12 14 22 20 8 nan
nan 9 8 10 12 9 9 10 9 8 9 11 10 9 8 10 9 9 7 9 9 7 6 10 12 10 5 12 10 6 8 7 7 14 10 9 9 15 11 11 16 17 13 9 nan
nan nan nan nan nan nan nan nan nan nan nan nan nan nan nan nan nan nan nan nan nan nan nan nan nan nan nan nan nan nan nan nan nan nan nan nan nan nan nan nan nan nan nan nan nan
CAPE
0 0 1 0 1 2 0 1 0 2 1 2 1 0 0 0 0 0 0 0 0 534 165 8 396 907 817 501 398 369 1004 583 349 305 453 48 138 175 113 39 113 229 164 303 547
0 1 0 0 0 0 0 0 1 1 1 2 0 0 0 0 0 0 0 29 589 1144 417 895 1261 860 730 245 695 514 638 328 333 289 298 103 153 176 11 102 133 281 303 476 583
0 1 0 0 0 0 1 1 2 1 1 2 0 0 0 0 0 0 0 106 849 703 425 852 1174 982 518 151 281 243 306 291 457 218 167 118 130 160 103 158 113 143 357 511 590
0 0 1 0 0 0 1 0 1 2 0 1 0 0 0 0 0 0 1 333 946 75 592 410 938 447 896 706 361 133 195 264 106 17 60 135 164 138 110 138 81 88 308 430 502
1 0 1 0 0 0 1 0 1 0 1 0 0 0 0 0 0 86 1457 1034 21 0 533 428 622 571 499 596 451 163 145 222 183 74 112 22 183 135 118 85 20 158 331 392 420
0 1 0 0 0 1 0 0 0 2 0 0 0 0 0 0 0 0 0 0 0 10 423 276 366 380 574 327 123 36 56 98 167 310 288 0 68 98 131 70 74 178 297 357 414
1 2 0 2 0 0 0 0 0 1 0 0 0 0 0 0 0 0 0 0 0 100 740 528 608 579 662 231 98 83 82 118 46 207 151 61 114 138 127 80 118 117 232 300 386
1 1 1 0 1 0 0 0 2 0 0 0 0 0 0 0 0 0 0 0 0 0 118 161 492 541 204 183 118 104 121 164 53 115 21 105 269 127 126 47 87 119 152 240 330
1 1 1 0 0 0 0 1 0 0 0 0 0 0 0 0 0 0 0 0 0 0 44 93 266 179 44 304 266 144 333 200 55 110 84 81 282 84 69 55 59 43 80 137 210
1 1 1 0 0 1 1 0 0 0 0 0 0 0 0 0 0 0 0 0 39 63 142 34 82 93 2 43 145 82 71 36 63 18 129 162 153 42 68 76 76 31 0 0 10
1 0 0 1 0 0 0 0 0 0 0 0 0 0 0 0 0 0 0 15 0 26 303 28 55 69 0 84 197 121 107 195 81 80 144 173 178 163 123 82 139 93 66 49 2
2 0 0 0 0 0 0 0 0 0 0 0 0 0 0 0 0 0 30 125 151 206 64 27 70 121 59 101 174 172 304 226 72 97 136 215 245 313 172 166 166 186 132 85 47
1 0 0 0 0 0 0 0 0 0 0 0 0 0 0 0 0 7 41 205 79 45 69 69 36 29 188 209 175 80 159 115 75 71 180 185 185 166 270 202 196 174 181 135 98
1 0 0 0 0 0 0 0 0 0 0 0 0 0 0 0 9 20 95 175 133 37 0 2 78 193 85 91 182 82 132 118 139 168 214 151 176 321 241 466 306 276 227 177 154
1 0 0 0 0 0 0 0 0 0 0 0 0 0 0 51 93 133 190 94 126 81 129 378 163 270 129 165 107 221 66 69 141 237 245 201 296 329 190 285 405 583 449 339 322
1 0 0 0 0 0 0 0 0 0 0 0 0 3 0 106 251 309 360 203 45 187 239 185 132 153 175 224 207 245 196 27 89 190 273 102 319 159 131 155 88 131 536 709 754
1 0 0 0 0 0 0 0 0 0 0 0 0 72 70 205 274 449 433 511 449 430 144 340 420 195 254 295 303 340 387 148 38 285 105 112 355 168 209 111 153 214 324 472 872
0 0 0 0 0 0 0 0 0 0 0 0 3 49 93 295 373 322 498 592 363 385 433 513 42 472 361 575 577 558 668 119 2 0 0 162 126 3 203 140 237 333 581 876 932
0 0 0 0 0 0 0 0 0 0 0 0 0 52 53 0 84 96 412 504 506 499 552 477 350 26 122 29 169 25 235 19 22 0 3 0 4 0 240 280 367 441 399 708 816
0 0 0 0 0 0 0 0 0 0 0 0 0 9 0 0 0 0 0 62 229 309 400 478 342 35 0 0 0 10 0 3 0 0 0 0 0 0 1 266 426 538 657 560 791
0 0 0 0 0 0 0 0 0 0 0 0 0 0 0 0 0 0 0 0 0 0 54 251 293 30 0 0 0 0 0 0 0 0 0 0 0 0 1 319 296 367 753 717 785
0 0 0 0 0 0 0 0 0 0 0 0 0 0 0 0 0 0 0 0 0 0 0 0 9 25 0 0 0 0 0 0 0 0 0 0 0 0 109 91 389 441 780 1094 988
0 0 0 0 0 0 0 0 0 0 0 0 0 0 0 0 0 0 0 0 0 0 0 0 0 0 0 0 0 0 0 0 0 0 0 0 0 0 0 47 373 432 1090 806 735
0 0 0 0 0 0 0 0 0 0 0 0 0 0 0 0 0 0 0 0 0 0 0 0 0 0 0 0 0 0 0 0 0 0 0 0 0 0 0 0 0 586 1052 914 891
0 0 0 0 0 0 0 0 0 0 0 0 0 0 0 0 0 0 0 0 0 0 0 0 0 0 0 0 0 0 0 0 0 0 0 0 0 0 0 0 105 250 1065 1318 1210
0 0 0 0 0 0 0 0 0 0 0 0 0 0 0 0 0 0 0 0 0 0 0 0 0 0 0 0 0 0 0 0 0 0 0 0 0 0 286 485 628 686 853 1183 1188
0 0 0 0 0 0 0 0 0 0 0 0 0 0 0 0 0 0 0 0 0 0 0 0 0 0 0 0 0 0 0 0 0 0 0 0 0 117 496 990 822 719 667 895 1191